Location: Mt. Cuba Astronomical Observatory
(39.8100°N, 75.6300°W)
Time: 07:37:31
(UTC-04:00)

Daily predictions for brighter satellites

Satellite Brightness Start Highest point End
(mag) Time Altitude Azimuth Time Altitude Azimuth Time Altitude Azimuth
H-2A R/B 4.1 20:33:54 10° SW 20:37:16 27° SSE 20:48:03 10° ESE
NOSS 2-2 (C) 3.7 20:45:10 10° SW 20:49:14 79° NW 20:53:57 10° NNE
Cosmos 1674 Rocket 4.1 20:46:04 10° N 20:50:18 42° ENE 20:54:30 10° SSE
Resurs 01 Rocket 4.1 20:50:09 10° SSW 20:53:37 22° W 20:57:06 10° NW
Meteor 1-27 Rocket 4.4 20:50:24 10° N 20:55:30 36° ENE 21:00:31 10° SE
SL-27 R/B 2.6 20:54:23 10° NNW 20:58:01 63° ENE 21:01:34 10° SSE
Cosmos 1606 3.8 20:55:34 10° NNE 20:59:01 29° ENE 21:02:28 10° SE
Cosmos 1340 Rocket 4.1 20:56:58 10° SSW 21:00:48 45° WNW 21:04:43 10° N
Sich 1 Rocket 4.0 20:56:36 10° SSE 21:00:58 45° E 21:05:20 10° NNE
SL-08 ROCKET BODY 4.4 20:56:56 10° S 21:02:57 77° E 21:08:53 10° N
Cosmos 1356 Rocket 3.9 21:00:01 10° SSW 21:04:13 66° W 21:08:30 10° N
Cosmos 1892 3.2 21:00:35 10° SSW 21:04:22 65° W 21:08:14 10° N
PSLV R/B 4.2 21:01:37 10° W 21:04:49 37° SSW 21:07:48 12° SE
Cosmos 1782 2.8 21:05:57 10° N 21:09:59 70° E 21:14:00 10° SSE
Envisat 3.3 21:06:20 10° SE 21:11:13 50° ENE 21:16:07 10° N
ERBS 3.9 21:11:08 10° WNW 21:14:13 30° SW 21:17:17 10° S
H-2A R/B 4.3 21:11:15 10° SSW 21:14:39 35° W 21:18:06 10° NNW
CZ-4 DEB 3.2 21:11:42 10° S 21:14:49 61° W 21:17:58 10° NNW
GPS 2-05 Rocket1 3.8 21:11:33 10° SW 21:14:55 33° SSE 21:17:32 14° ESE
COSMOS 2487 3.8 21:12:52 10° N 21:15:57 26° ENE 21:18:09 15° ESE
Cosmos 2341 Rocket 4.4 21:10:07 10° SSE 21:16:00 42° E 21:21:50 10° NNE
Atlas Centaur 2 2.8 21:13:56 10° SW 21:16:22 17° S 21:18:09 13° SSE
Coronas F rocket 3.7 21:17:48 10° SW 21:20:04 25° WNW 21:22:21 10° NNW
Cosmos 1975 Rocket 4.1 21:16:52 10° NNE 21:20:36 28° ENE 21:23:14 16° SE
Cosmos 1939 Rocket 2.8 21:17:51 10° SSE 21:21:41 70° ENE 21:25:36 10° N
TIMED 4.4 21:18:06 10° S 21:22:25 69° ESE 21:26:48 10° NNE
ARGOS 4.4 21:23:42 14° ESE 21:27:08 26° ENE 21:31:29 10° N
ATLAS 5 CENTAUR R/B 3.3 21:22:32 10° NW 21:28:22 47° WSW 21:34:31 10° S
ERS-1 Rocket 3.2 21:23:45 10° S 21:28:46 75° WSW 21:33:50 10° NNW
Cosmos 2084 3.0 21:25:25 10° SSW 21:29:16 73° ESE 21:33:05 10° NE
Cosmos 1908 Rocket 3.5 21:25:10 10° S 21:29:32 74° E 21:33:59 10° NNE
Cosmos 407 Rocket 3.6 21:24:42 10° NNW 21:30:00 82° WSW 21:35:07 11° SSE
Meteor 2-6 Rocket 4.5 21:24:36 10° NNW 21:30:33 78° W 21:36:21 10° S
Cosmos 1733 Rocket 4.3 21:27:30 10° SSW 21:31:43 44° W 21:35:56 10° N
NOSS 5 (C) 4.3 21:28:23 10° SW 21:31:53 86° WNW 21:35:00 10° NNE
Cosmos 1378 Rocket 3.6 21:28:28 10° N 21:32:45 60° E 21:36:03 16° SSE
H-2A R/B 3.9 21:32:36 12° E 21:35:18 17° ENE 21:38:34 10° NNE
Cosmos 1140 Rocket 4.0 21:31:03 10° N 21:35:56 42° ENE 21:39:05 20° SE
deb Chang Zheng 4 3.6 21:32:51 10° NNE 21:37:17 89° E 21:41:44 10° SSW
Cosmos 1452 Rocket 3.5 21:34:26 10° SSW 21:39:42 89° WNW 21:45:01 10° NNE
USA 234 4.3 21:35:46 10° ENE 21:40:31 21° ESE 21:44:00 14° SSE
COSMOS 2406 4.5 21:37:04 10° NW 21:42:19 38° WSW 21:47:31 10° S
Cosmos 2154 Rocket 4.0 21:36:15 10° S 21:42:29 88° E 21:48:42 10° N
Nimbus 7 Rocket 4.4 21:36:46 10° NNE 21:42:43 81° ESE 21:48:43 10° SSW
USA 245 4.0 21:44:17 25° ESE 21:45:24 31° ENE 21:48:56 10° N
YAOGAN 6 3.0 21:44:09 28° SE 21:45:35 44° ENE 21:48:57 10° N
Cosmos 1408 2.5 21:43:50 11° S 21:47:21 87° E 21:51:01 10° N
CZ-4B R/B 3.9 21:44:10 10° NNE 21:48:45 39° E 21:51:12 23° SSE
Cosmos 1833 Rocket 4.1 21:44:33 10° N 21:49:08 25° NE 21:52:00 17° E
Cosmos 1242 Rocket 3.1 21:45:48 10° N 21:49:18 41° ENE 21:50:30 30° ESE
Cosmos 2278 Rocket 2.1 21:44:20 10° SSW 21:50:00 85° ESE 21:55:43 10° NNE
SPOT 1/Viking Rocket 4.0 21:47:24 23° SE 21:50:21 46° ENE 21:55:20 10° N
Cosmos 1825 2.2 21:47:53 10° S 21:51:41 81° W 21:55:32 10° N
CZ-4 SHROUD 3.2 21:50:46 37° SE 21:51:44 60° ENE 21:54:48 10° N
Cosmos 1844 Rocket 3.9 21:47:51 10° SW 21:53:14 44° WNW 21:58:38 10° N
Intercosmos 25 3.3 21:52:52 31° SSE 21:54:08 45° E 21:57:12 10° NNE
Cosmos 1844 4.4 21:49:17 10° SW 21:54:58 59° WNW 22:00:43 10° NNE
MetOp-A 4.1 21:52:41 20° SSE 21:56:26 80° ENE 22:01:48 10° N
PSLV R/B 2.9 21:55:39 44° SSE 21:56:28 80° ENE 21:59:25 10° N
Cosmos 489 Rocket 4.4 21:52:28 10° NNW 21:58:42 76° ENE 22:02:34 24° SSE
H-2A R/B 2.7 21:55:26 14° S 21:59:01 52° W 22:03:10 10° NNW
Cosmos 1184 Rocket 3.1 21:59:22 17° SSW 22:01:46 69° W 22:05:07 10° N
Meteor 1-14 Rocket 4.4 21:58:45 22° SSE 22:02:08 50° E 22:07:32 10° NNE
Cosmos 2366 rocket 4.3 22:07:19 27° SSE 22:10:30 49° E 22:16:33 10° NNE
Cosmos 2082 Rocket 2.7 22:05:12 10° N 22:10:40 45° ENE 22:13:01 29° ESE
Cosmos 1850 Rocket 4.0 22:07:49 10° NNW 22:13:09 69° ENE 22:15:24 35° SE
Terra 3.0 22:13:28 25° E 22:14:34 28° ENE 22:18:35 10° N
Cosmos 1238 Rocket 3.6 22:13:20 10° NNW 22:16:29 40° W 22:18:32 21° SSW
Cosmos 1812 4.4 22:13:32 10° NNE 22:16:16 21° ENE 22:16:16 21° ENE
ISS -1.9 22:13:31 10° WSW 22:16:36 39° NNW 22:19:41 10° NE
SL-08 RB Rocket 3.8 22:17:17 40° SE 22:18:44 61° ENE 22:23:19 10° N
SPOT 5 3.7 22:15:48 18° S 22:19:35 53° W 22:24:50 10° NNW
Cosmos 2297 3.6 22:19:22 10° SSW 22:25:04 83° ESE 22:30:50 10° NNE
USA 229 DEB 4.1 22:19:00 10° NNW 22:25:59 57° NE 22:29:26 31° ESE
USA 229 4.1 22:19:06 10° NNW 22:26:06 56° NE 22:29:32 31° ESE
Okean 2 Rocket 3.9 22:25:23 15° SSW 22:28:54 49° W 22:33:11 10° N
OAO 3 Rocket 4.1 22:26:54 10° SW 22:30:20 32° SSW 22:30:20 32° SSW
NOAA 11 4.2 22:30:26 36° S 22:32:49 84° WSW 22:38:21 10° NNW
Cosmos 1741 Rocket 4.0 22:28:15 10° NNW 22:33:30 81° WSW 22:35:15 43° S
DMSP B5D2-2 4.4 22:29:09 10° NNE 22:34:05 42° E 22:34:30 41° ESE
Cosmos 2218 Rocket 4.0 22:33:58 25° S 22:38:00 88° W 22:44:27 10° N
Cosmos 1331 Rocket 4.3 22:42:01 44° E 22:42:01 44° E 22:46:51 10° NNE
CZ-4C R/B 3.2 22:43:57 73° ENE 22:43:58 73° ENE 22:48:03 10° N
ASTEX 1 4.1 22:40:58 10° NNE 22:45:20 36° E 22:45:20 36° E
Timation 1 Rocket 4.3 22:44:33 44° SSE 22:46:17 61° ESE 22:52:13 10° NNE
BREEZE-M DEB (TANK) 2.7 22:38:46 10° WNW 22:47:51 67° SW 22:48:20 60° S
Cosmos 1110 Rocket 4.0 22:48:01 57° SE 22:48:33 60° ESE 22:53:41 10° NNE
DELTA 2 DEB (DPAF) 4.0 22:51:58 72° S 22:52:25 87° WSW 22:56:55 10° NNW
Cosmos 1727 Rocket 3.9 22:47:51 10° N 22:54:04 88° E 22:56:01 47° S
AVUM R/B 4.5 22:51:35 10° NNW 22:54:13 41° NNE 22:54:13 41° NNE
DNEPR-1 R/B 4.4 22:53:04 10° NW 22:57:55 41° WSW 22:58:32 39° SW
Cosmos 2369 Rocket 4.0 23:00:27 17° ENE 23:00:27 17° ENE 23:02:26 10° NE
CARTOSAT-1 3.4 22:58:42 81° ENE 22:58:42 81° ENE 23:02:59 10° N
Meteor 2-19 Rocket 4.4 23:00:06 44° S 23:02:12 89° W 23:08:21 10° N
ARGOS 4.1 23:05:13 29° SW 23:07:09 39° W 23:12:09 10° NNW
Cosmos 1536 Rocket 4.0 23:07:00 10° NNW 23:11:23 53° W 23:11:40 52° WSW
Meteor 1-20 Rocket 4.2 23:11:44 52° SSW 23:13:06 77° W 23:18:40 10° N
H-2A R/B 2.3 23:13:15 56° SSW 23:14:10 66° WSW 23:19:29 10° NNW
Cosmos 1486 Rocket 4.3 23:09:41 10° N 23:14:55 54° ENE 23:15:08 54° ENE
Okean 1 4.0 23:19:19 10° NNW 23:22:36 53° NW 23:22:36 53° NW
USA 234 3.1 23:17:28 10° NE 23:24:03 87° SE 23:30:35 10° SW
Cosmos 1821 Rocket 4.0 23:27:02 59° ESE 23:27:22 59° E 23:33:28 10° NNE
Cosmos 1833 Rocket 3.2 23:27:53 10° NW 23:33:17 48° WSW 23:33:42 47° WSW
Cosmos 2285 Rocket 4.4 23:34:44 47° E 23:34:44 47° E 23:40:19 10° NNE
Cosmos 1943 Rocket 4.4 23:37:08 12° ENE 23:37:08 12° ENE 23:37:54 10° ENE
Meteor 2-21 Rocket 4.4 23:39:07 66° E 23:39:14 67° E 23:45:23 10° NNE
Cosmos 1934 Rocket 4.0 23:40:23 62° E 23:40:23 62° E 23:46:15 10° NNE
Cosmos 1302 Rocket 4.0 23:43:57 77° N 23:43:57 77° N 23:48:56 10° NNE
Cosmos 2123 Rocket 4.2 23:39:23 10° N 23:45:31 55° E 23:45:41 54° E
Cosmos 1025 Rocket 4.0 23:45:32 10° N 23:48:39 45° N 23:48:39 45° N
Meteor 2-21 4.3 23:49:42 76° SW 23:50:12 83° W 23:56:27 10° N
Terra 3.2 23:52:21 29° W 23:52:21 29° W 23:56:23 10° NW
ALOS 2 4.3 23:53:52 26° NE 23:53:52 26° NE 23:56:34 10° N
ISS 0.1 23:52:13 10° NW 23:53:44 13° NNW 23:55:15 10° NNE
Cosmos 2082 Rocket 3.7 23:49:55 10° NW 23:54:26 25° WSW 23:54:52 24° WSW
